Location: *
(37.9500°N, 27.3666°E)
Time: 15:10:00
(UTC+00:00)

FALCON 9 DEB - Pass Details

Date: 24 October 2021
Orbit: 335 x 347 km, 53.0° (Epoch: 05 December)

Event Time Altitude Azimuth Distance (km) Brightness Sun altitude
Rises 16:32:52 0° 222° (SW) 2,158 7.4 -14.8°
Reaches altitude 10° 16:34:51 10° 219° (SW) 1,324 6.2 -15.2°
Maximum altitude 16:37:48 68° 136° (SE) 390 2.6 -15.8°
Enters shadow 16:38:29 46° 72° (ENE) 493 2.9 -15.9°
